User: anonymous   Login
Location: Burzi?i
(45.0869°N, 16.0577°E)
Time: 03:40:22
(UTC+00:00)
Language:

CRYOSAT 2 - Orbit

View from above orbital plane
View from above orbital plane
View from above satellite
View from above satellite

Ground track
Ground track

The orbit data is extracted from the following two-line orbital elements,

1 36508U 10013A   21015.59716892  .00000012  00000-0  22451-5 0  9995
2 36508  92.0185 159.0140 0005295 186.3792 173.7349 14.51909763571019
Epoch (UTC): 15 January 2021 14:19:55
Eccentricity: 0.0005295
inclination: 92.0185°
perigee height: 715 km
apogee height: 723 km
right ascension of ascending node: 159.0140°
argument of perigee: 186.3792°
revolutions per day: 14.51909763
mean anomaly at epoch: 173.7349°
orbit number at epoch: 57101

The dashed part of the orbit path shows where the satellite is in the earth's shadow,  

DLR